Khamis Mushait, Saudi Arabia

3:32 PM AST on September 18, 2019 (GMT +0300)
King Khalid Air Base

Weather History for OEKM - August, 2019

Change the Weather History Date:

Thursday, August 22, 2019

  Actual Average Record
Temperature  
Mean Temperature 80 °F -  
Max Temperature 91 °F 84 °F 93 °F (2018)
Min Temperature 68 °F 62 °F 62 °F (1998)
Cooling Degree Days 14    
Growing Degree Days 30 (Base 50)    
Moisture  
Dew Point 43 °F    
Average Humidity 30    
Maximum Humidity 69    
Minimum Humidity 7    
Precipitation  
Precipitation 0.00 in - - ()
Sea Level Pressure  
Sea Level Pressure 30.15 in    
Wind  
Wind Speed 6 mph ()    
Max Wind Speed 17 mph    
Max Gust Speed -    
Visibility 6.2 miles    
Events      
Averages and records for this station are not official NWS values.
T = Trace of Precipitation, MM = Missing Value Source: Averaged Metar Reports

Daily Weather History Graph

Daily Weather History Graph

Search for Another Location

Airport or City:

Astronomy

Aug. 22, 2019 Rise Set
Actual Time 5:52 AM AST 6:31 PM AST
Civil Twilight 5:29 AM AST 6:53 PM AST
Nautical Twilight 5:03 AM AST 7:19 PM AST
Astronomical Twilight 4:36 AM AST 7:46 PM AST
Moon 11:03 PM AST (8/22) 11:14 AM AST (8/22)
Length of Visible Light 13h 23m
Length of Day
12h 38m
Waning Gibbous, 63% of the Moon is Illuminated
Aug 22
Waning Gibbous
Aug 23
Last Quarter
Aug 30
New
Sep 6
First Quarter
Sep 14
Full

Hourly Weather History & Observations

Time (AST) Temp. Dew Point Humidity Pressure Visibility Wind Dir Wind Speed Gust Speed Precip Events Conditions
1:00 AM 75.2 °F 42.8 °F 31% 30.15 in - ENE 4.6 mph - N/A   Clear
2:00 AM 73.4 °F 42.8 °F 33% 30.15 in - East 6.9 mph - N/A   Clear
3:00 AM 72 °F 41 °F 22%  in 6 mi East 4.6 mph - -  
3:00 AM 71.6 °F 41.0 °F 33% 30.15 in - East 4.6 mph - N/A   Clear
4:00 AM 69.8 °F 42.8 °F 38% 30.15 in - Calm Calm - N/A   Clear
5:00 AM 69.8 °F 42.8 °F 38% 30.15 in - Calm Calm - N/A   Clear
6:00 AM 68.0 °F 44.6 °F 43% 30.15 in - South 5.8 mph - N/A   Clear
8:00 AM 77.0 °F 41.0 °F 28% 30.18 in - SSE 4.6 mph - N/A   Clear
9:00 AM 82.4 °F 39.2 °F 21% 30.18 in - SE 11.5 mph - N/A   Clear
11:00 AM 89.6 °F 39.2 °F 17% 30.18 in 6.2 mi ESE 6.9 mph - N/A   Partly Cloudy
12:00 PM 89.6 °F 39.2 °F 17% 30.15 in 6.2 mi ENE 11.5 mph - N/A   Scattered Clouds
1:00 PM 91.4 °F 33.8 °F 13% 30.15 in 6.2 mi NE 17.3 mph - N/A   Scattered Clouds
2:00 PM 89.6 °F 32.0 °F 13% 30.12 in 6.2 mi ENE 11.5 mph - N/A   Scattered Clouds
3:00 PM 89 °F 34 °F 7%  in 6 mi NNE 17.3 mph - -   Partly Cloudy
3:00 PM 89.6 °F 33.8 °F 14% 30.12 in 6.2 mi NNE 17.3 mph - N/A   Scattered Clouds
4:00 PM 87.8 °F 33.8 °F 15% 30.09 in 6.2 mi ENE 17.3 mph - N/A   Scattered Clouds
5:00 PM 86.0 °F 32.0 °F 14% 30.09 in 6.2 mi ENE 6.9 mph - N/A   Scattered Clouds
6:00 PM 86.0 °F 30.2 °F 13% 30.09 in 6.2 mi ENE 9.2 mph - N/A   Partly Cloudy
7:00 PM 75.2 °F 64.4 °F 69% 30.15 in - WSW 9.2 mph - N/A   Clear
8:00 PM 77.0 °F 62.6 °F 61% 30.15 in - WSW 9.2 mph - N/A   Clear
9:00 PM 75.2 °F 62.6 °F 65% 30.18 in - SSW 9.2 mph - N/A   Clear
10:00 PM 73.4 °F 60.8 °F 65% 30.18 in - Calm Calm - N/A   Clear